This is the latest recevied weather packets stored in our database for station/object KC3UTO. If no packets are shown the sender has not sent any weather packets the latest 10 day(s).
| Time | Temp. | Humidity | Pressure | Rain* | Wind** | Luminosity | Snow |
|---|---|---|---|---|---|---|---|
| 1777480612 | 17.78° C | 54% | 1012.5 hPa | 0 mm | - | 479 W/m² | - |
| 1777480310 | 17.78° C | 54% | 1012.5 hPa | 0 mm | - | 426 W/m² | - |
| 1777480005 | 17.78° C | 54% | 1012.5 hPa | 0 mm | - | 412 W/m² | - |
| 1777479703 | 17.78° C | 53% | 1012.7 hPa | 0 mm | - | 388 W/m² | - |
| 1777479401 | 17.22° C | 55% | 1012.8 hPa | 0 mm | - | 435 W/m² | - |
| 1777479096 | 17.22° C | 54% | 1012.8 hPa | 0 mm | - | 646 W/m² | - |
| 1777478793 | 17.22° C | 52% | 1012.7 hPa | 0 mm | - | 456 W/m² | - |
| 1777478490 | 17.22° C | 53% | 1013.3 hPa | 0 mm | - | 546 W/m² | - |
| 1777478187 | 17.22° C | 54% | 1013.2 hPa | 0 mm | - | 569 W/m² | - |
| 1777477883 | 16.67° C | 55% | 1013.2 hPa | 0 mm | - | 524 W/m² | - |
| 1777477578 | 16.11° C | 56% | 1013.3 hPa | 0 mm | - | 463 W/m² | - |
| 1777477275 | 16.11° C | 55% | 1013.5 hPa | 0 mm | - | 350 W/m² | - |
| 1777476971 | 15.56° C | 54% | 1013.6 hPa | 0 mm | - | 388 W/m² | - |
| 1777476670 | 15.56° C | 56% | 1013.7 hPa | 0 mm | - | 368 W/m² | - |
| 1777476366 | 15.56° C | 56% | 1013.8 hPa | 0 mm | - | 302 W/m² | - |
| 1777476062 | 15.56° C | 59% | 1013.8 hPa | 0 mm | - | 270 W/m² | - |
| 1777475757 | 15.56° C | 55% | 1014 hPa | 0 mm | - | 257 W/m² | - |
| 1777475455 | 15° C | 59% | 1013.9 hPa | 0 mm | - | 266 W/m² | - |
| 1777475149 | 15° C | 57% | 1014.1 hPa | 0 mm | - | 321 W/m² | - |
| 1777474847 | 15° C | 56% | 1013.9 hPa | 0 mm | - | 281 W/m² | - |
| 1777474542 | 15° C | 56% | 1013.9 hPa | 0 mm | - | 283 W/m² | - |
| 1777474239 | 15° C | 59% | 1013.9 hPa | 0 mm | - | 241 W/m² | - |
| 1777473936 | 15° C | 58% | 1014 hPa | 0 mm | - | 375 W/m² | - |
| 1777473634 | 15° C | 59% | 1014.1 hPa | 0 mm | - | 215 W/m² | - |
| 1777473330 | 14.44° C | 59% | 1014.1 hPa | 0 mm | - | 242 W/m² | - |
* Rain latest hour (hover to see other rain measurements)
** Current wind speed in m/s (hover to see current wind gust speed)